User: anonymous   Login
Location: Newsoms
(36.6240°N, 77.1250°W)
Time: 11:41:12
(UTC-04:00)
Language:

BREEZE-M DEB (TANK) - Orbit

View from above orbital plane
View from above orbital plane
View from above satellite
View from above satellite

Ground track
Ground track

The orbit data is extracted from the following two-line orbital elements,

1 29649U 06056B   16269.00151022  .00002134  00000-0  43105-3 0  9998
2 29649  49.5081  67.4946 5381479 356.0390   0.9832  4.98825455174529
Epoch (UTC): 25 September 2016 00:02:10
Eccentricity: 0.5381479
inclination: 49.5081°
perigee height: 304 km
apogee height: 15877 km
right ascension of ascending node: 67.4946°
argument of perigee: 356.0390°
revolutions per day: 4.98825455
mean anomaly at epoch: 0.9832°
orbit number at epoch: 17452

The dashed part of the orbit path shows where the satellite is in the earth's shadow,  

DLR